| time (UTC) | temp F | wind direction | speed MPH | gust MPH | rain 1hr in | rain 24hr in | rain mn in | humidity % | barometer mb |
| 20260504050429 | 89 | 164 | 0.0 | 8.0 | 0.00 | 0.00 | 0.00 | 100 | 1016.6 |
| 20260504045930 | 89 | 180 | 4.0 | 8.0 | 0.00 | 0.00 | 0.00 | 100 | 1016.5 |
| 20260504045428 | 89 | 194 | 0.0 | 6.0 | 0.00 | 0.00 | 0.00 | 100 | 1016.5 |
| 20260504044928 | 89 | 135 | 0.0 | 11.0 | 0.00 | 0.00 | 0.00 | 100 | 1016.6 |
| 20260504044655 | 89 | 99 | 4.0 | 11.0 | 0.00 | 0.00 | 0.00 | 100 | 1016.7 |
| 20260504043924 | 89 | 157 | 4.0 | 7.0 | 0.00 | 0.00 | 0.00 | 100 | 1016.6 |
| 20260504043423 | 89 | 92 | 0.0 | 6.0 | 0.00 | 0.00 | 0.00 | 100 | 1016.7 |
| 20260504042922 | 89 | 125 | 0.0 | 7.0 | 0.00 | 0.00 | 0.00 | 100 | 1016.8 |
| 20260504042411 | 90 | 125 | 0.0 | 7.0 | 0.00 | 0.00 | 0.00 | 100 | 1016.8 |
| 20260504041904 | 90 | 147 | 2.0 | 5.0 | 0.00 | 0.00 | 0.00 | 100 | 1016.8 |
| 20260504041358 | 89 | 172 | 0.0 | 0.0 | 0.00 | 0.00 | 0.00 | 100 | 1016.9 |
| 20260504040849 | 90 | 172 | 0.0 | 0.0 | 0.00 | 0.00 | 0.00 | 100 | 1016.9 |
| 20260504040344 | 90 | 172 | 0.0 | 4.0 | 0.00 | 0.00 | 0.00 | 100 | 1016.9 |
| 20260504035835 | 90 | 172 | 0.0 | 4.0 | 0.00 | 0.00 | 0.00 | 100 | 1016.9 |
| 20260504035328 | 89 | 135 | 0.0 | 5.0 | 0.00 | 0.00 | 0.00 | 100 | 1016.9 |
| 20260504034824 | 89 | 135 | 0.0 | 5.0 | 0.00 | 0.00 | 0.00 | 100 | 1016.9 |
| 20260504034549 | 87 | 129 | 0.0 | 0.0 | 0.00 | 0.00 | 0.00 | 100 | 1016.8 |
| 20260504033816 | 87 | 129 | 0.0 | 0.0 | 0.00 | 0.00 | 0.00 | 100 | 1016.8 |
| 20260504033802 | 87 | 129 | 0.0 | 0.0 | 0.00 | 0.00 | 0.00 | 100 | 1016.7 |
| 20260504032744 | 87 | 129 | 0.0 | 0.0 | 0.00 | 0.00 | 0.00 | 100 | 1016.7 |
| 20260504032220 | 87 | 129 | 0.0 | 0.0 | 0.00 | 0.00 | 0.00 | 100 | 1016.7 |
| 20260504031657 | 87 | 129 | 0.0 | 0.0 | 0.00 | 0.00 | 0.00 | 100 | 1016.7 |
| 20260504031137 | 87 | 129 | 0.0 | 0.0 | 0.00 | 0.00 | 0.00 | 100 | 1016.7 |
| 20260504030613 | 88 | 129 | 0.0 | 0.0 | 0.00 | 0.00 | 0.00 | 100 | 1016.9 |
| 20260504030340 | 89 | 129 | 0.0 | 0.0 | 0.00 | 0.00 | 0.00 | 100 | 1016.9 |
| 20260504025556 | 88 | 129 | 0.0 | 0.0 | 0.00 | 0.00 | 0.00 | 100 | 1016.8 |
| 20260504025053 | 89 | 129 | 0.0 | 0.0 | 0.00 | 0.00 | 0.00 | 100 | 1016.7 |
| 20260504024533 | 89 | 129 | 0.0 | 0.0 | 0.00 | 0.00 | 0.00 | 100 | 1016.9 |
| 20260504024025 | 89 | 129 | 0.0 | 0.0 | 0.00 | 0.00 | 0.00 | 100 | 1016.8 |
| 20260504023513 | 89 | 129 | 0.0 | 0.0 | 0.00 | 0.00 | 0.00 | 100 | 1016.8 |
| 20260504023012 | 89 | 129 | 0.0 | 0.0 | 0.00 | 0.00 | 0.00 | 100 | 1016.7 |
| 20260504022502 | 90 | 129 | 0.0 | 0.0 | 0.00 | 0.00 | 0.00 | 100 | 1016.7 |
| 20260504021954 | 90 | 129 | 0.0 | 0.0 | 0.00 | 0.00 | 0.00 | 100 | 1016.6 |
| 20260504021432 | 90 | 129 | 0.0 | 0.0 | 0.00 | 0.00 | 0.00 | 100 | 1016.8 |
| 20260504021200 | 91 | 129 | 0.0 | 0.0 | 0.00 | 0.00 | 0.00 | 100 | 1016.8 |
| 20260504020429 | 91 | 129 | 0.0 | 0.0 | 0.00 | 0.00 | 0.00 | 100 | 1016.7 |
| 20260504015928 | 91 | 129 | 0.0 | 0.0 | 0.00 | 0.00 | 0.00 | 100 | 1016.7 |
| 20260504015425 | 91 | 129 | 0.0 | 0.0 | 0.00 | 0.00 | 0.00 | 100 | 1016.5 |
| 20260504014916 | 92 | 129 | 0.0 | 0.0 | 0.00 | 0.00 | 0.00 | 100 | 1016.4 |
| 20260504014412 | 91 | 129 | 0.0 | 0.0 | 0.00 | 0.00 | 0.00 | 100 | 1016.3 |
| 20260504013909 | 92 | 129 | 0.0 | 0.0 | 0.00 | 0.00 | 0.00 | 100 | 1016.2 |
| 20260504013638 | 91 | 129 | 0.0 | 0.0 | 0.00 | 0.00 | 0.00 | 100 | 1016.2 |
| 20260504012903 | 92 | 129 | 0.0 | 0.0 | 0.00 | 0.00 | 0.00 | 100 | 1016.1 |
| 20260504012359 | 92 | 129 | 0.0 | 0.0 | 0.00 | 0.00 | 0.00 | 100 | 1016.2 |
| 20260504011835 | 92 | 129 | 0.0 | 0.0 | 0.00 | 0.00 | 0.00 | 100 | 1016.2 |
| 20260504011312 | 92 | 129 | 0.0 | 0.0 | 0.00 | 0.00 | 0.00 | 100 | 1016.2 |
| 20260504010807 | 92 | 129 | 0.0 | 0.0 | 0.00 | 0.00 | 0.00 | 100 | 1016.2 |
| 20260504010258 | 93 | 129 | 0.0 | 0.0 | 0.00 | 0.00 | 0.00 | 100 | 1016.2 |
| 20260504005752 | 93 | 129 | 0.0 | 0.0 | 0.00 | 0.00 | 0.00 | 100 | 1016.3 |
| 20260504005250 | 94 | 129 | 0.0 | 0.0 | 0.00 | 0.00 | 0.00 | 100 | 1016.2 |
| 20260504004717 | 94 | 129 | 0.0 | 0.0 | 0.00 | 0.00 | 0.00 | 100 | 1016.2 |
| 20260504004439 | 94 | 129 | 0.0 | 1.0 | 0.00 | 0.00 | 0.00 | 100 | 1016.2 |
| 20260504003658 | 94 | 129 | 0.0 | 6.0 | 0.00 | 0.00 | 0.00 | 100 | 1016.2 |
| 20260504003147 | 94 | 129 | 1.0 | 6.0 | 0.00 | 0.00 | 0.00 | 100 | 1016.2 |
| 20260504002644 | 95 | 143 | 0.0 | 7.0 | 0.00 | 0.00 | 0.00 | 100 | 1016.3 |
| 20260504002129 | 95 | 143 | 0.0 | 7.0 | 0.00 | 0.00 | 0.00 | 100 | 1016.4 |
| 20260504001626 | 95 | 163 | 0.0 | 5.0 | 0.00 | 0.00 | 0.00 | 100 | 1016.4 |
| 20260504001126 | 95 | 174 | 0.0 | 7.0 | 0.00 | 0.00 | 0.00 | 100 | 1016.6 |
| 20260504000625 | 95 | 137 | 1.0 | 7.0 | 0.00 | 0.00 | 0.00 | 100 | 1016.5 |
| 20260504000119 | 95 | 112 | 0.0 | 5.0 | 0.00 | 0.00 | 0.00 | 100 | 1016.7 |
| 20260503235613 | 95 | 137 | 0.0 | 6.0 | 0.00 | 0.00 | 0.00 | 100 | 1016.7 |
| 20260503235114 | 95 | 129 | 0.0 | 9.0 | 0.00 | 0.00 | 0.00 | 100 | 1016.7 |
| 20260503234602 | 96 | 127 | 0.0 | 9.0 | 0.00 | 0.00 | 0.00 | 100 | 1016.8 |
| 20260503234101 | 96 | 180 | 4.0 | 9.0 | 0.00 | 0.00 | 0.00 | 100 | 1016.7 |
| 20260503233600 | 96 | 140 | 4.0 | 9.0 | 0.00 | 0.00 | 0.00 | 100 | 1016.8 |
| 20260503233100 | 96 | 153 | 1.0 | 7.0 | 0.00 | 0.00 | 0.00 | 100 | 1016.8 |
| 20260503232559 | 96 | 139 | 0.0 | 7.0 | 0.00 | 0.00 | 0.00 | 100 | 1016.8 |
| 20260503232320 | 96 | 139 | 0.0 | 7.0 | 0.00 | 0.00 | 0.00 | 100 | 1016.9 |
| 20260503231814 | 96 | 154 | 2.0 | 7.0 | 0.00 | 0.00 | 0.00 | 100 | 1016.8 |
| 20260503231043 | 96 | 151 | 2.0 | 9.0 | 0.00 | 0.00 | 0.00 | 100 | 1016.8 |
| 20260503230543 | 96 | 198 | 0.0 | 9.0 | 0.00 | 0.00 | 0.00 | 100 | 1016.7 |
| 20260503230314 | 96 | 150 | 5.0 | 10.0 | 0.00 | 0.00 | 0.00 | 100 | 1016.6 |
| 20260503225544 | 96 | 146 | 5.0 | 11.0 | 0.00 | 0.00 | 0.00 | 100 | 1016.6 |
| 20260503225043 | 96 | 118 | 5.0 | 11.0 | 0.00 | 0.00 | 0.00 | 100 | 1016.7 |
| 20260503224543 | 97 | 130 | 1.0 | 9.0 | 0.00 | 0.00 | 0.00 | 100 | 1016.7 |
| 20260503224043 | 96 | 163 | 6.0 | 10.0 | 0.00 | 0.00 | 0.00 | 100 | 1016.8 |
| 20260503223544 | 97 | 129 | 2.0 | 10.0 | 0.00 | 0.00 | 0.00 | 100 | 1016.8 |
| 20260503223043 | 98 | 125 | 5.0 | 10.0 | 0.00 | 0.00 | 0.00 | 100 | 1017.0 |
| 20260503222543 | 98 | 157 | 2.0 | 10.0 | 0.00 | 0.00 | 0.00 | 100 | 1017.1 |
| 20260503222042 | 98 | 135 | 0.0 | 9.0 | 0.00 | 0.00 | 0.00 | 100 | 1017.0 |
| 20260503221546 | 97 | 144 | 4.0 | 10.0 | 0.00 | 0.00 | 0.00 | 100 | 1017.3 |
| 20260503221543 | 98 | 105 | 0.0 | 9.0 | 0.00 | 0.00 | 0.00 | 100 | 1017.1 |
| 20260503220542 | 97 | 157 | 4.0 | 10.0 | 0.00 | 0.00 | 0.00 | 100 | 1017.3 |
| 20260503220044 | 98 | 129 | 0.0 | 9.0 | 0.00 | 0.00 | 0.00 | 100 | 1017.5 |
| 20260503215535 | 98 | 154 | 5.0 | 12.0 | 0.00 | 0.00 | 0.00 | 100 | 1017.6 |
| 20260503215036 | 98 | 146 | 4.0 | 16.0 | 0.00 | 0.00 | 0.00 | 100 | 1017.6 |
| 20260503214535 | 97 | 154 | 3.0 | 16.0 | 0.00 | 0.00 | 0.00 | 100 | 1017.6 |
| 20260503214306 | 98 | 142 | 4.0 | 11.0 | 0.00 | 0.00 | 0.00 | 100 | 1017.7 |
| 20260503213535 | 98 | 78 | 0.0 | 11.0 | 0.00 | 0.00 | 0.00 | 100 | 1017.8 |
| 20260503213257 | 98 | 133 | 4.0 | 8.0 | 0.00 | 0.00 | 0.00 | 100 | 1018.0 |
| 20260503212744 | 98 | 156 | 2.0 | 10.0 | 0.00 | 0.00 | 0.00 | 100 | 1018.0 |
| 20260503212013 | 97 | 108 | 2.0 | 11.0 | 0.00 | 0.00 | 0.00 | 100 | 1018.0 |
| 20260503211502 | 98 | 120 | 5.0 | 11.0 | 0.00 | 0.00 | 0.00 | 100 | 1018.1 |
| 20260503211002 | 97 | 153 | 5.0 | 10.0 | 0.00 | 0.00 | 0.00 | 100 | 1018.3 |
| 20260503210733 | 98 | 135 | 4.0 | 10.0 | 0.00 | 0.00 | 0.00 | 100 | 1018.5 |
| 20260503210002 | 98 | 132 | 0.0 | 10.0 | 0.00 | 0.00 | 0.00 | 100 | 1018.6 |
| 20260503205457 | 98 | 160 | 5.0 | 10.0 | 0.00 | 0.00 | 0.00 | 100 | 1018.8 |
| 20260503204957 | 99 | 158 | 5.0 | 9.0 | 0.00 | 0.00 | 0.00 | 100 | 1018.9 |
| 20260503204456 | 99 | 150 | 4.0 | 10.0 | 0.00 | 0.00 | 0.00 | 100 | 1018.9 |
| 20260503203956 | 98 | 189 | 6.0 | 10.0 | 0.00 | 0.00 | 0.00 | 100 | 1018.9 |
| 20260503203457 | 98 | 142 | 5.0 | 10.0 | 0.00 | 0.00 | 0.00 | 100 | 1019.1 |
| 20260503203227 | 98 | 127 | 4.0 | 10.0 | 0.00 | 0.00 | 0.00 | 100 | 1019.2 |
| 20260503202457 | 98 | 156 | 2.0 | 10.0 | 0.00 | 0.00 | 0.00 | 100 | 1019.2 |
| 20260503201956 | 99 | 178 | 5.0 | 10.0 | 0.00 | 0.00 | 0.00 | 100 | 1019.4 |
| 20260503201725 | 98 | 104 | 2.0 | 10.0 | 0.00 | 0.00 | 0.00 | 100 | 1019.4 |
| 20260503200953 | 98 | 156 | 2.0 | 13.0 | 0.00 | 0.00 | 0.00 | 100 | 1019.5 |
| 20260503200453 | 98 | 146 | 6.0 | 13.0 | 0.00 | 0.00 | 0.00 | 100 | 1019.6 |
| 20260503195953 | 99 | 154 | 0.0 | 10.0 | 0.00 | 0.00 | 0.00 | 100 | 1019.5 |
| 20260503195452 | 98 | 157 | 6.0 | 10.0 | 0.00 | 0.00 | 0.00 | 100 | 1019.8 |
| 20260503195223 | 99 | 158 | 4.0 | 10.0 | 0.00 | 0.00 | 0.00 | 100 | 1019.9 |
| 20260503194453 | 99 | 209 | 4.0 | 10.0 | 0.00 | 0.00 | 0.00 | 100 | 1020.0 |
| 20260503194224 | 98 | 164 | 5.0 | 9.0 | 0.00 | 0.00 | 0.00 | 100 | 1019.9 |
| 20260503193453 | 98 | 151 | 6.0 | 10.0 | 0.00 | 0.00 | 0.00 | 100 | 1020.0 |
| 20260503192953 | 98 | 139 | 4.0 | 10.0 | 0.00 | 0.00 | 0.00 | 100 | 1020.0 |
| 20260503192452 | 98 | 106 | 1.0 | 9.0 | 0.00 | 0.00 | 0.00 | 100 | 1020.1 |
| 20260503192222 | 98 | 133 | 5.0 | 9.0 | 0.00 | 0.00 | 0.00 | 100 | 1020.1 |
| 20260503191451 | 98 | 127 | 0.0 | 11.0 | 0.00 | 0.00 | 0.00 | 100 | 1020.2 |
| 20260503190947 | 98 | 150 | 6.0 | 11.0 | 0.00 | 0.00 | 0.00 | 100 | 1020.3 |
| 20260503190446 | 99 | 180 | 0.0 | 8.0 | 0.00 | 0.00 | 0.00 | 100 | 1020.3 |
| 20260503190215 | 98 | 164 | 5.0 | 11.0 | 0.00 | 0.00 | 0.00 | 100 | 1020.5 |
| 20260503185443 | 98 | 171 | 3.0 | 11.0 | 0.00 | 0.00 | 0.00 | 100 | 1020.6 |
| 20260503185215 | 97 | 158 | 5.0 | 9.0 | 0.00 | 0.00 | 0.00 | 100 | 1020.6 |
| 20260503184443 | 98 | 156 | 4.0 | 10.0 | 0.00 | 0.00 | 0.00 | 100 | 1020.7 |
| 20260503183942 | 98 | 127 | 0.0 | 10.0 | 0.00 | 0.00 | 0.00 | 100 | 1020.8 |
| 20260503183444 | 97 | 167 | 4.0 | 10.0 | 0.00 | 0.00 | 0.00 | 100 | 1020.9 |
| 20260503182942 | 96 | 164 | 7.0 | 10.0 | 0.00 | 0.00 | 0.00 | 100 | 1021.1 |
| 20260503182443 | 97 | 140 | 1.0 | 9.0 | 0.00 | 0.00 | 0.00 | 100 | 1021.2 |
| 20260503181943 | 97 | 143 | 5.0 | 9.0 | 0.00 | 0.00 | 0.00 | 100 | 1021.1 |
| 20260503181443 | 98 | 119 | 3.0 | 11.0 | 0.00 | 0.00 | 0.00 | 100 | 1021.2 |
| 20260503180943 | 97 | 94 | 4.0 | 11.0 | 0.00 | 0.00 | 0.00 | 100 | 1021.4 |
| 20260503180443 | 97 | 135 | 3.0 | 9.0 | 0.00 | 0.00 | 0.00 | 100 | 1021.7 |
| 20260503180212 | 98 | 196 | 4.0 | 10.0 | 0.00 | 0.00 | 0.00 | 100 | 1021.8 |
| 20260503175439 | 98 | 143 | 5.0 | 10.0 | 0.00 | 0.00 | 0.00 | 100 | 1021.8 |
| 20260503174923 | 98 | 195 | 1.0 | 8.0 | 0.00 | 0.00 | 0.00 | 100 | 1021.9 |
| 20260503174416 | 98 | 139 | 1.0 | 12.0 | 0.00 | 0.00 | 0.00 | 100 | 1022.0 |
| 20260503174144 | 98 | 150 | 4.0 | 12.0 | 0.00 | 0.00 | 0.00 | 100 | 1022.1 |
| 20260503173407 | 98 | 178 | 3.0 | 8.0 | 0.00 | 0.00 | 0.00 | 100 | 1022.0 |
| 20260503173116 | 97 | 150 | 4.0 | 10.0 | 0.00 | 0.00 | 0.00 | 100 | 1022.1 |
| 20260503172345 | 98 | 111 | 0.0 | 10.0 | 0.00 | 0.00 | 0.00 | 100 | 1022.1 |
| 20260503171839 | 98 | 150 | 5.0 | 9.0 | 0.00 | 0.00 | 0.00 | 100 | 1022.2 |
| 20260503171339 | 97 | 143 | 2.0 | 9.0 | 0.00 | 0.00 | 0.00 | 100 | 1022.2 |
| 20260503170840 | 97 | 132 | 2.0 | 10.0 | 0.00 | 0.00 | 0.00 | 100 | 1022.4 |
| 20260503170609 | 97 | 208 | 5.0 | 12.0 | 0.00 | 0.00 | 0.00 | 100 | 1022.5 |
| 20260503150739 | 94 | 202 | 0.0 | 0.0 | 0.00 | 0.00 | 0.00 | 100 | 1023.1 |
| 20260503150501 | 93 | 202 | 0.0 | 2.0 | 0.00 | 0.00 | 0.00 | 100 | 1023.1 |
| 20260503140129 | 87 | 191 | 0.0 | 4.0 | 0.00 | 0.00 | 0.00 | 100 | 1022.7 |
| 20260503131044 | 83 | 244 | 1.0 | 3.0 | 0.00 | 0.00 | 0.00 | 100 | 1022.4 |
| 20260503130539 | 83 | 49 | 0.0 | 0.0 | 0.00 | 0.00 | 0.00 | 100 | 1022.4 |
| 20260503120129 | 79 | 49 | 0.0 | 0.0 | 0.00 | 0.00 | 0.00 | 100 | 1021.9 |
| 20260503110811 | 79 | 49 | 0.0 | 0.0 | 0.00 | 0.00 | 0.00 | 100 | 1021.5 |
| 20260503110307 | 79 | 49 | 0.0 | 0.0 | 0.00 | 0.00 | 0.00 | 100 | 1021.4 |
| 20260503100106 | 80 | 49 | 0.0 | 0.0 | 0.00 | 0.00 | 0.00 | 100 | 1020.7 |
| 20260503080906 | 81 | 49 | 0.0 | 0.0 | 0.00 | 0.00 | 0.00 | 29 | 1020.7 |
| 20260503080345 | 81 | 49 | 0.0 | 0.0 | 0.00 | 0.00 | 0.00 | 26 | 1020.7 |
| 20260503072802 | 81 | 49 | 0.0 | 0.0 | 0.00 | 0.00 | 0.00 | 9 | 1020.8 |
| 20260503072254 | 81 | 49 | 0.0 | 0.0 | 0.00 | 0.00 | 0.00 | 8 | 1020.9 |
| 20260503071745 | 81 | 49 | 0.0 | 0.0 | 0.00 | 0.00 | 0.00 | 7 | 1020.9 |
| 20260503071229 | 81 | 49 | 0.0 | 0.0 | 0.00 | 0.00 | 0.00 | 6 | 1020.9 |
| 20260503070952 | 81 | 49 | 0.0 | 0.0 | 0.00 | 0.00 | 0.00 | 6 | 1020.9 |
| 20260503070450 | 81 | 49 | 0.0 | 0.0 | 0.00 | 0.00 | 0.00 | 5 | 1021.1 |
| 20260503060228 | 82 | 49 | 0.0 | 0.0 | 0.00 | 0.00 | 0.00 | 1 | 1021.2 |
| 20260503054945 | 82 | 49 | 0.0 | 0.0 | 0.00 | 0.00 | 0.00 | 1 | 1021.2 |
| 20260503054444 | 82 | 49 | 0.0 | 0.0 | 0.00 | 0.00 | 0.00 | 100 | 1021.2 |
| 20260503053936 | 82 | 49 | 0.0 | 0.0 | 0.00 | 0.00 | 0.00 | 100 | 1021.2 |
| 20260503053420 | 82 | 49 | 0.0 | 0.0 | 0.00 | 0.00 | 0.00 | 100 | 1021.4 |
| 20260503052900 | 82 | 49 | 0.0 | 0.0 | 0.00 | 0.00 | 0.00 | 100 | 1021.4 |
| 20260503052334 | 82 | 49 | 0.0 | 0.0 | 0.00 | 0.00 | 0.00 | 100 | 1021.4 |
| 20260503051811 | 82 | 49 | 0.0 | 0.0 | 0.00 | 0.00 | 0.00 | 100 | 1021.4 |
| 20260503051312 | 82 | 49 | 0.0 | 0.0 | 0.00 | 0.00 | 0.00 | 100 | 1021.5 |
| 20260503050808 | 82 | 49 | 0.0 | 0.0 | 0.00 | 0.00 | 0.00 | 100 | 1021.4 |